Location: Unspecified
(0.0000°N, 0.0000°E)
Time: 11:29:14
(UTC+00:00)

Vanguard 1 Rocket - Pass Details

Date: 20 November 2019
Orbit: 650 x 4226 km, 34.3° (Epoch: 07 December)

Event Time Altitude Azimuth Distance (km) Brightness Sun altitude
Rises 23:07:42 0° 240° (WSW) 6,686 12.1 -68.1°
Reaches altitude 10° 23:13:03 10° 243° (WSW) 5,075 11.3 -68.7°
Enters shadow 23:14:55 14° 245° (WSW) 4,489 11.0 -68.8°
Maximum altitude 23:25:25 57° 318° (NW) 1,635 - -69.6°
Drops below altitude 10° 23:31:51 10° 37° (NE) 2,732 - -69.9°
Sets 23:33:55 0° 42° (NE) 3,454 - -70.0°
